This is the latest recevied weather packets stored in our database for station/object KY4OP-13. If no packets are shown the sender has not sent any weather packets the latest 10 day(s).
| Time | Temp. | Humidity | Pressure | Rain* | Wind** | Luminosity | Snow |
|---|---|---|---|---|---|---|---|
| 1778047111 | 18.89° C | 61% | 1012.9 hPa | 0 mm | - | - | - |
| 1778046809 | 18.89° C | 60% | 1012.9 hPa | 0 mm | - | - | - |
| 1778046506 | 18.89° C | 61% | 1013 hPa | 0 mm | - | - | - |
| 1778046202 | 18.89° C | 61% | 1013.1 hPa | 0 mm | - | - | - |
| 1778045898 | 18.89° C | 61% | 1013 hPa | 0 mm | - | - | - |
| 1778045598 | 18.33° C | 61% | 1013.2 hPa | 0 mm | - | - | - |
| 1778045295 | 18.33° C | 61% | 1013.2 hPa | 0 mm | - | - | - |
| 1778044994 | 18.33° C | 62% | 1013.2 hPa | 0 mm | - | - | - |
| 1778044691 | 17.78° C | 64% | 1013.1 hPa | 0 mm | - | - | - |
| 1778044387 | 16.67° C | 64% | 1013.2 hPa | 0 mm | - | - | - |
| 1778044085 | 16.67° C | 67% | 1013.2 hPa | 0 mm | - | - | - |
| 1778043782 | 16.67° C | 66% | 1013 hPa | 0 mm | - | - | - |
| 1778043478 | 16.67° C | 67% | 1013.1 hPa | 0 mm | - | - | - |
| 1778043175 | 16.67° C | 66% | 1013.1 hPa | 0 mm | - | - | - |
| 1778042872 | 16.67° C | 65% | 1013.1 hPa | 0 mm | - | - | - |
| 1778042570 | 17.22° C | 64% | 1013.1 hPa | 0 mm | - | - | - |
| 1778042262 | 17.22° C | 63% | 1013.2 hPa | 0 mm | - | - | - |
| 1778041959 | 17.78° C | 62% | 1013.2 hPa | 0 mm | - | - | - |
| 1778041658 | 17.78° C | 62% | 1013.3 hPa | 0 mm | - | - | - |
| 1778041356 | 17.78° C | 61% | 1013.1 hPa | 0 mm | - | - | - |
| 1778041053 | 18.33° C | 60% | 1013.2 hPa | 0 mm | - | - | - |
| 1778040751 | 17.78° C | 61% | 1013.1 hPa | 0 mm | - | - | - |
| 1778040449 | 17.22° C | 63% | 1013.1 hPa | 0 mm | - | - | - |
| 1778040144 | 17.22° C | 62% | 1013.1 hPa | 0 mm | - | - | - |
| 1778039841 | 17.22° C | 62% | 1013.1 hPa | 0 mm | - | - | - |
* Rain latest hour (hover to see other rain measurements)
** Current wind speed in m/s (hover to see current wind gust speed)